User: anonymous   Login
Location: Nitra
(0.0000°N, 18.0833°E)
Time: 23:40:08
(UTC+02:00)
Language:

Meteor 2-21 - Orbit

View from above orbital plane
View from above orbital plane
View from above satellite
View from above satellite

Ground track
Ground track

The orbit data is extracted from the following two-line orbital elements,

1 22782U 93055A   21111.75517674 -.00000006  00000-0 -19378-4 0  9991
2 22782  82.5502 348.9183 0023635  90.4255 334.9594 13.83835376395680
Epoch (UTC): 21 April 2021 18:07:27
Eccentricity: 0.0023635
inclination: 82.5502°
perigee height: 933 km
apogee height: 967 km
right ascension of ascending node: 348.9183°
argument of perigee: 90.4255°
revolutions per day: 13.83835376
mean anomaly at epoch: 334.9594°
orbit number at epoch: 39568

The dashed part of the orbit path shows where the satellite is in the earth's shadow,  

DLR